GFSNGP_prec_snow_204.txt.gz
Snowfall_Accumulation
0.0 0.0 0.3 0.1 0.0 0.6 2.7 3.4 6.1 0.4 0.4 2.5 0.1 0.8 0.3 0.0 0.0 0.7 1.4 1.6 0.0 3.3 3.0 1.6 3.0 1.7 2.2 1.5 1.6 1.5 0.7 1.0 0.6 0.0 0.7 1.5 0.8 1.7 2.7 2.9 1.2 1.2 1.8 2.0
1.5 0.2 0.2 0.9 0.6 0.6 0.3 0.2 0.8 0.9 1.1 0.1 0.0 0.0 0.0 0.0 0.0 0.0 0.1 0.0 0.1 0.0 0.0 0.1 0.3 0.3 0.1 0.5 0.2 0.2 0.2 0.0 0.3 0.1 0.0 0.3 0.2 0.3 0.8 2.7 1.2 1.3 0.9 0.9
6.1 0.5 0.7 3.4 0.7 0.0 1.5 2.0 1.7 0.9 1.3 0.0 0.0 0.1 0.4 0.0 0.0 0.0 0.0 0.0 0.0 0.0 0.0 0.0 0.0 0.0 0.1 0.0 0.0 0.0 0.0 0.0 0.0 0.1 0.0 0.0 0.0 0.1 0.1 0.1 0.9 2.5 2.4 1.8
7.9 1.7 9.2 0.5 0.0 0.0 1.7 0.9 0.0 0.2 0.0 0.0 0.0 0.3 0.4 0.1 0.0 0.0 0.0 0.0 0.0 0.0 0.0 0.0 0.0 0.0 0.0 0.0 0.0 0.0 0.0 0.0 0.0 0.0 0.1 0.6 1.4 2.5 2.4 2.0 1.5 1.0 2.5 3.2
9.9 5.1 1.0 0.4 0.2 0.5 1.0 1.0 0.6 0.7 0.1 0.0 0.0 0.7 1.6 0.0 0.0 0.0 0.0 0.0 0.0 0.0 0.0 0.0 0.0 0.0 0.0 0.0 0.0 0.0 0.0 1.3 1.1 1.0 0.9 3.1 3.9 3.9 3.6 2.9 3.8 3.5 4.2 4.6
10.0 11.3 5.4 1.6 0.7 0.0 0.0 6.1 2.3 1.2 0.3 0.2 0.0 1.1 1.1 0.1 0.0 0.0 0.0 0.0 0.0 0.0 0.0 0.0 0.0 0.0 0.0 0.0 0.6 0.2 2.8 3.2 1.0 4.3 4.4 5.2 4.9 4.4 4.7 4.4 4.9 4.6 5.2 4.1
11.6 15.5 4.1 1.5 0.0 0.0 2.8 8.2 1.7 1.3 3.0 4.1 3.8 3.4 1.0 0.1 0.0 0.0 0.0 0.0 0.0 0.0 0.0 0.0 0.0 0.0 0.0 0.4 0.3 2.7 3.1 5.7 5.8 7.5 7.1 6.2 6.6 5.9 5.2 5.8 5.1 5.3 4.5 3.4
12.2 14.1 10.0 1.3 0.4 4.6 3.1 1.6 2.3 2.8 3.6 7.4 2.4 0.4 0.0 0.0 0.0 0.0 0.0 0.0 0.0 0.0 0.0 0.0 0.0 0.0 0.2 0.2 2.8 3.9 5.9 6.3 5.9 5.3 6.4 5.8 5.1 6.1 5.3 4.2 4.6 4.1 3.6 4.2
8.9 7.0 3.9 2.4 2.7 3.3 3.2 3.1 3.4 3.8 2.3 0.4 0.4 0.0 0.0 0.0 0.0 0.0 0.0 0.0 0.0 0.0 0.0 0.0 0.0 0.0 0.1 0.7 2.1 3.6 4.5 3.2 5.0 4.4 3.9 3.6 4.4 5.5 5.1 4.3 4.5 4.8 4.5 4.1
7.7 4.7 2.0 3.6 2.0 2.2 3.1 3.2 1.6 0.0 0.0 0.0 0.0 0.0 0.0 0.0 0.0 0.0 0.0 0.0 0.0 0.0 0.0 0.0 0.0 0.0 0.6 1.3 4.0 5.1 5.3 6.5 5.8 5.3 5.8 5.5 5.4 5.1 4.5 4.9 4.7 4.6 5.2 5.0
12.2 11.7 1.7 3.1 3.4 3.6 2.8 1.4 1.5 0.0 0.0 0.0 0.0 0.0 0.0 0.0 0.0 0.0 0.0 0.0 0.0 0.3 0.2 0.0 0.0 0.6 0.7 1.8 2.7 3.4 3.2 3.6 5.4 4.7 4.4 3.7 3.2 3.7 3.3 4.7 4.9 5.5 5.1 5.7
10.7 7.1 9.1 6.4 8.5 4.7 2.5 0.6 0.0 0.0 0.0 0.0 0.0 0.0 0.0 0.1 0.0 0.0 0.0 0.0 0.0 0.0 0.1 0.2 0.1 0.6 1.2 1.3 0.6 0.8 3.0 3.9 7.4 4.9 12.4 8.3 8.2 10.0 9.1 7.5 6.8 9.6 11.2 12.3
2.7 2.9 4.2 4.7 0.0 0.0 0.8 1.6 1.2 0.0 0.3 0.0 0.0 0.0 0.0 0.1 0.0 0.8 0.7 0.5 1.0 0.5 0.7 1.0 1.1 0.8 1.0 0.9 1.1 1.1 1.8 3.0 5.9 7.1 11.1 14.7 16.2 12.3 13.9 14.7 14.4 15.4 11.8 10.5
0.0 0.7 0.7 0.0 1.2 0.0 0.0 0.0 0.6 0.0 0.0 0.0 0.0 0.0 0.0 0.1 1.5 3.1 3.6 3.8 3.2 1.5 2.5 2.2 0.9 2.3 6.5 5.6 7.0 6.8 6.8 9.4 10.0 12.5 16.6 19.0 18.2 19.3 19.6 16.5 12.4 16.0 16.1 16.8
0.3 0.0 0.1 0.0 0.2 0.0 0.0 0.0 0.3 0.1 0.0 0.0 0.0 0.1 0.0 0.6 2.7 3.5 10.8 11.9 7.7 10.8 14.0 12.8 12.1 17.4 17.8 16.4 15.7 16.0 13.8 14.8 14.9 16.4 16.5 17.0 18.6 18.4 17.2 16.7 16.5 16.1 16.0 14.0
0.5 0.0 0.0 0.5 0.3 0.3 0.3 0.5 0.8 0.3 0.0 0.1 0.2 0.1 0.1 1.6 3.4 4.1 6.8 10.2 11.2 15.5 18.3 18.0 19.2 20.1 17.2 15.3 12.9 12.7 12.6 11.4 9.4 9.3 11.4 12.7 12.7 13.2 14.4 14.3 14.6 15.0 14.8 15.4
2.8 1.1 0.2 0.5 0.4 0.4 0.6 1.0 1.3 0.9 0.4 0.3 0.3 0.3 0.2 0.7 3.0 5.8 10.1 10.4 12.4 14.1 14.7 13.2 13.9 11.4 9.3 8.8 7.5 7.0 7.5 7.3 6.6 6.3 6.5 6.9 9.0 9.9 11.0 11.2 11.5 11.9 12.7 13.1
0.4 0.4 0.7 2.8 3.3 2.0 0.8 0.8 1.2 0.8 0.7 0.5 0.7 1.2 1.9 4.2 6.9 11.3 14.4 14.2 10.2 9.4 10.6 10.1 8.0 6.3 5.7 5.7 4.7 4.3 4.3 4.1 4.7 5.7 5.1 5.3 6.8 7.3 7.1 7.0 7.4 7.5 8.8 9.4
1.1 2.7 2.2 2.6 2.6 2.1 1.9 1.7 1.4 0.9 2.1 2.3 3.8 6.7 7.8 9.4 9.3 8.5 7.8 7.9 8.6 7.3 8.4 5.7 4.7 4.1 3.5 3.5 2.8 3.3 3.1 3.6 3.5 3.6 3.7 3.5 4.4 5.1 6.6 6.1 5.9 6.4 6.9 7.2
2.0 1.4 2.0 1.1 0.5 1.3 1.2 1.4 2.0 3.2 5.2 4.4 4.9 6.3 5.9 6.7 5.6 5.7 5.1 5.6 4.7 4.2 2.9 3.3 3.1 3.1 2.8 2.2 1.5 1.7 1.9 2.0 2.6 3.1 3.7 4.2 5.1 5.2 5.2 4.2 5.3 5.7 5.8 6.2
1.4 0.8 0.8 1.0 1.2 1.8 2.8 4.1 3.6 5.3 7.7 5.9 4.6 5.7 6.6 8.6 8.0 6.9 5.4 3.1 3.7 2.6 2.4 2.1 1.5 1.8 1.3 1.5 1.5 1.6 2.4 2.8 3.1 4.1 3.8 3.9 3.9 3.9 3.8 4.2 4.7 4.3 5.3 5.6
6.0 6.3 5.3 5.0 4.5 5.8 6.3 6.1 5.1 5.6 6.0 6.6 7.2 7.0 7.0 8.1 7.4 6.0 4.0 3.3 3.1 2.3 2.0 1.7 1.3 1.4 1.1 1.0 1.8 2.3 2.3 2.6 2.2 2.2 2.4 2.9 3.2 3.4 3.2 3.4 4.0 4.0 4.2 4.2
10.1 9.8 9.4 8.4 7.2 8.0 8.7 7.8 7.8 6.7 7.3 7.7 7.3 7.1 5.7 6.2 4.8 3.3 3.1 2.4 1.6 1.7 1.6 1.6 1.6 1.4 1.2 2.0 2.8 2.6 2.7 2.0 2.0 2.1 2.3 2.4 2.8 3.2 3.0 2.9 3.3 3.5 3.7 3.3
7.8 7.8 9.4 8.2 7.1 5.8 6.7 8.0 6.9 7.0 6.8 7.5 6.2 5.7 4.5 3.9 3.7 2.5 1.9 1.9 1.7 1.7 1.6 2.0 1.4 1.1 1.5 2.4 2.4 2.0 2.4 1.9 1.7 1.9 1.9 1.2 2.3 1.9 2.2 2.3 2.2 2.1 2.3 2.3
6.3 5.6 5.0 5.1 4.8 5.6 5.1 5.3 4.8 5.7 5.6 6.6 5.9 4.7 3.5 2.5 2.5 2.8 1.9 2.4 2.0 1.6 1.8 1.7 1.0 1.2 1.7 2.1 2.2 1.9 2.2 1.9 1.6 2.2 2.2 2.1 1.9 1.9 1.9 1.8 1.7 1.8 1.6 1.6
6.2 6.1 5.6 4.7 4.9 4.5 3.9 3.9 4.6 5.6 4.9 5.6 5.2 4.1 3.5 3.2 3.1 2.6 2.0 1.6 1.1 1.1 1.8 2.4 1.6 1.4 2.0 1.9 1.9 1.6 1.9 1.8 1.5 1.7 1.8 1.8 1.9 1.8 1.7 1.7 1.5 1.3 1.4 1.3
5.2 4.8 3.6 3.9 4.0 4.0 4.0 4.3 4.1 4.6 4.5 4.5 4.7 3.6 3.4 3.7 3.3 3.3 2.4 2.3 2.0 2.0 2.1 2.3 1.8 1.4 1.3 1.8 2.2 1.9 1.8 1.6 0.7 1.4 1.5 1.8 1.9 2.0 1.9 1.9 1.9 1.8 1.7 1.8

GFSNGP_prec_snow_207.txt.gz
Snowfall_Accumulation
0.0 0.0 0.3 0.1 0.0 0.6 2.7 3.4 6.2 0.4 0.4 2.5 0.1 0.8 0.3 0.0 0.0 0.7 1.4 1.6 0.0 3.3 3.0 1.6 3.0 1.7 2.2 1.5 1.6 1.5 0.7 1.0 0.6 0.0 0.7 1.5 0.8 1.7 2.7 2.9 1.2 1.2 1.8 2.0
1.5 0.2 0.2 0.9 0.6 0.6 0.3 0.2 0.8 0.9 1.1 0.1 0.0 0.0 0.0 0.0 0.0 0.0 0.1 0.0 0.1 0.0 0.0 0.1 0.3 0.3 0.1 0.5 0.2 0.2 0.2 0.0 0.3 0.1 0.0 0.3 0.2 0.3 0.8 2.7 1.2 1.3 0.9 0.9
6.1 0.5 0.7 3.4 0.7 0.0 1.5 2.0 1.7 0.9 1.3 0.0 0.0 0.1 0.4 0.0 0.0 0.0 0.0 0.0 0.0 0.0 0.0 0.0 0.0 0.0 0.1 0.0 0.0 0.0 0.0 0.0 0.0 0.1 0.0 0.0 0.0 0.1 0.1 0.1 0.9 2.5 2.4 1.8
7.9 1.7 9.3 0.5 0.0 0.0 1.7 0.9 0.0 0.2 0.0 0.0 0.0 0.3 0.4 0.1 0.0 0.0 0.0 0.0 0.0 0.0 0.0 0.0 0.0 0.0 0.0 0.0 0.0 0.0 0.0 0.0 0.0 0.0 0.1 0.6 1.4 2.5 2.4 2.0 1.5 1.0 2.5 3.2
9.9 5.1 1.0 0.4 0.2 0.5 1.0 1.0 0.6 0.7 0.1 0.0 0.0 0.7 1.6 0.0 0.0 0.0 0.0 0.0 0.0 0.0 0.0 0.0 0.0 0.0 0.0 0.0 0.0 0.0 0.0 1.3 1.1 1.0 0.9 3.1 3.9 3.9 3.6 2.9 3.8 3.5 4.2 4.6
10.0 11.6 5.5 1.6 0.7 0.0 0.0 6.1 2.3 1.2 0.3 0.2 0.0 1.1 1.1 0.1 0.0 0.0 0.0 0.0 0.0 0.0 0.0 0.0 0.0 0.0 0.0 0.0 0.6 0.2 2.8 3.2 1.0 4.3 4.4 5.2 4.9 4.4 4.7 4.4 4.9 4.6 5.2 4.1
11.6 15.5 4.1 1.5 0.0 0.0 2.8 8.2 1.7 1.3 3.0 4.1 3.8 3.4 1.0 0.1 0.0 0.0 0.0 0.0 0.0 0.0 0.0 0.0 0.0 0.0 0.0 0.4 0.3 2.7 3.1 5.7 5.8 7.5 7.1 6.2 6.6 5.9 5.2 5.8 5.1 5.3 4.5 3.4
12.2 14.1 10.0 1.3 0.4 4.6 3.1 1.6 2.3 2.8 3.6 7.4 2.4 0.4 0.0 0.0 0.0 0.0 0.0 0.0 0.0 0.0 0.0 0.0 0.0 0.0 0.2 0.2 2.8 3.9 5.9 6.3 5.9 5.3 6.4 5.8 5.1 6.1 5.3 4.2 4.6 4.1 3.6 4.2
8.9 7.0 3.9 2.4 2.7 3.3 3.2 3.1 3.4 3.8 2.3 0.4 0.4 0.0 0.0 0.0 0.0 0.0 0.0 0.0 0.0 0.0 0.0 0.0 0.0 0.0 0.1 0.7 2.1 3.6 4.5 3.2 5.0 4.4 3.9 3.6 4.4 5.5 5.1 4.3 4.5 4.8 4.5 4.1
7.7 4.7 2.0 3.6 2.0 2.2 3.1 3.2 1.6 0.0 0.0 0.0 0.0 0.0 0.0 0.0 0.0 0.0 0.0 0.0 0.0 0.0 0.0 0.0 0.0 0.0 0.6 1.3 4.0 5.1 5.3 6.5 5.8 5.3 5.8 5.5 5.4 5.1 4.5 4.9 4.7 4.6 5.9 6.6
12.2 11.7 1.7 3.1 3.4 3.6 2.8 1.4 1.5 0.0 0.0 0.0 0.0 0.0 0.0 0.0 0.0 0.0 0.0 0.0 0.0 0.3 0.2 0.0 0.0 0.6 0.7 1.8 2.7 3.4 3.2 3.6 5.4 4.7 4.4 3.7 3.2 3.7 3.4 4.9 4.9 6.6 6.7 7.4
10.7 7.1 9.1 6.4 8.5 4.7 2.5 0.6 0.0 0.0 0.0 0.0 0.0 0.0 0.0 0.1 0.0 0.0 0.0 0.0 0.0 0.0 0.1 0.2 0.1 0.6 1.2 1.3 0.6 0.8 3.0 3.9 7.4 4.9 12.4 8.3 8.2 10.4 9.7 8.1 7.6 10.5 12.2 12.9
2.7 2.9 4.6 5.1 0.0 0.0 0.9 1.6 1.2 0.0 0.3 0.0 0.0 0.0 0.0 0.1 0.0 0.8 0.7 0.5 1.0 0.5 0.7 1.0 1.1 0.8 1.0 0.9 1.1 1.1 1.8 3.0 5.9 7.1 11.2 14.7 16.5 12.3 14.5 15.7 15.3 16.0 12.5 10.9
0.0 1.3 0.7 0.0 1.2 0.0 0.0 0.0 0.6 0.0 0.0 0.0 0.1 0.0 0.0 0.1 1.5 3.1 3.6 3.8 3.2 1.5 2.5 2.2 0.9 2.3 6.5 5.6 7.0 6.8 6.8 9.5 10.0 12.7 16.8 19.0 18.5 19.7 19.9 16.5 12.9 16.8 16.9 17.2
0.3 0.0 0.1 0.0 0.2 0.0 0.0 0.0 0.4 0.1 0.0 0.0 0.0 0.1 0.2 0.8 2.8 3.5 10.8 11.9 7.7 10.8 14.0 12.8 12.1 17.4 17.8 16.4 15.7 16.0 13.8 15.1 15.2 16.7 16.7 17.2 18.9 18.7 17.5 17.0 16.7 16.3 16.3 14.4
0.5 0.0 0.0 0.5 0.3 0.3 0.3 0.5 0.9 0.3 0.0 0.1 0.2 0.3 0.4 1.9 3.5 4.1 6.8 10.2 11.2 15.5 18.3 18.0 19.2 20.1 17.2 15.3 12.9 12.7 12.6 11.4 9.4 9.4 11.6 13.0 13.1 13.4 14.5 14.4 14.7 15.1 14.8 15.5
2.8 1.1 0.2 0.5 0.4 0.4 0.6 1.0 1.6 0.9 0.6 0.4 0.3 0.6 0.4 0.8 3.3 6.4 10.2 10.4 12.4 14.1 14.8 13.2 13.9 11.4 9.3 8.8 7.5 7.0 7.5 7.3 6.6 6.4 6.7 7.3 9.2 10.0 11.0 11.2 11.5 11.9 12.7 13.1
0.4 0.4 0.7 2.8 3.3 2.0 0.8 0.8 1.3 0.8 0.9 0.8 1.0 1.5 2.0 4.2 7.2 11.9 14.8 14.2 10.2 9.4 10.6 10.1 8.0 6.3 5.7 5.7 4.7 4.3 4.3 4.2 4.8 5.7 5.3 5.5 6.9 7.3 7.1 7.0 7.4 7.5 8.8 9.5
1.1 2.7 2.2 2.6 2.6 2.1 1.9 1.7 1.4 0.9 2.1 2.6 4.1 6.9 7.9 9.7 9.3 8.9 8.0 7.9 8.6 7.3 8.4 5.7 4.7 4.1 3.5 3.7 3.0 3.5 3.2 3.6 3.6 3.7 3.9 3.6 4.4 5.1 6.6 6.1 5.9 6.4 6.9 7.2
2.0 1.4 2.0 1.1 0.5 1.3 1.2 1.4 2.0 3.2 5.2 4.4 5.1 6.5 6.1 6.7 5.7 5.8 5.2 5.6 4.7 4.2 2.9 3.4 3.3 3.3 3.1 2.7 1.8 2.0 2.1 2.1 2.8 3.2 3.8 4.2 5.1 5.2 5.2 4.2 5.3 5.7 5.8 6.2
1.4 0.8 0.8 1.0 1.2 1.8 2.8 4.1 3.6 5.3 7.7 5.9 4.9 6.1 6.8 8.7 8.0 7.1 5.5 3.2 3.8 2.7 2.5 2.4 1.7 2.1 1.7 2.0 1.9 2.0 2.6 3.0 3.3 4.1 3.8 3.9 3.9 3.9 3.8 4.2 4.7 4.3 5.3 5.6
6.0 6.3 5.3 5.0 4.5 5.8 6.3 6.1 5.1 5.6 6.0 6.6 7.2 7.0 7.3 8.4 7.6 6.1 4.1 3.4 3.1 2.4 2.1 1.9 1.5 1.6 1.4 1.3 2.1 2.6 2.6 2.7 2.3 2.3 2.4 2.9 3.2 3.4 3.2 3.4 4.0 4.0 4.2 4.2
10.1 9.8 9.4 8.4 7.2 8.0 8.7 7.8 7.8 6.7 7.3 7.7 7.3 7.1 6.1 6.5 5.2 3.5 3.2 2.5 1.8 1.8 1.7 1.7 1.6 1.4 1.3 2.1 2.9 2.7 2.8 2.1 2.0 2.1 2.3 2.4 2.8 3.2 3.0 2.9 3.3 3.5 3.7 3.3
7.8 7.8 9.4 8.2 7.1 5.8 6.7 8.0 6.9 7.0 6.8 7.5 6.2 5.7 4.5 4.3 3.7 2.8 2.1 2.0 1.8 1.8 1.7 2.0 1.4 1.2 1.5 2.4 2.5 2.1 2.4 1.9 1.7 1.9 1.9 1.2 2.3 1.9 2.2 2.3 2.2 2.1 2.3 2.3
6.3 5.6 5.0 5.1 4.8 5.6 5.1 5.3 4.8 5.7 5.6 6.6 5.9 4.7 3.5 2.5 3.1 3.2 2.3 2.6 2.1 1.6 1.8 1.7 1.0 1.2 1.8 2.1 2.2 1.9 2.2 1.9 1.6 2.2 2.2 2.1 1.9 1.9 1.9 1.8 1.7 1.8 1.6 1.6
6.2 6.1 5.6 4.7 4.9 4.5 3.9 3.9 4.6 5.6 4.9 5.6 5.2 4.1 3.5 3.2 3.1 3.1 2.4 2.0 1.3 1.2 1.9 2.4 1.6 1.4 2.0 1.9 1.9 1.6 1.9 1.8 1.5 1.7 1.8 1.8 1.9 1.8 1.7 1.7 1.5 1.3 1.4 1.3
5.2 4.8 3.6 3.9 4.0 4.0 4.0 4.3 4.1 4.6 4.5 4.5 4.7 3.6 3.4 3.7 3.3 3.3 2.4 2.7 2.4 2.3 2.2 2.3 1.8 1.4 1.3 1.8 2.2 1.9 1.8 1.6 0.7 1.4 1.5 1.8 1.9 2.0 1.9 1.9 1.9 1.8 1.7 1.8

GFSNGP_prec_snow_210.txt.gz
Snowfall_Accumulation
0.0 0.0 0.3 0.1 0.0 0.6 2.7 3.4 6.5 0.4 0.4 2.5 0.1 0.8 0.3 0.0 0.0 0.7 1.4 1.6 0.0 3.3 3.0 1.6 3.0 1.7 2.2 1.5 1.6 1.5 0.7 1.0 0.6 0.0 0.7 1.5 0.8 1.7 2.7 2.9 1.2 1.2 1.8 2.0
1.5 0.2 0.2 0.9 0.6 0.6 0.3 0.2 0.8 0.9 1.1 0.1 0.0 0.0 0.0 0.0 0.0 0.0 0.1 0.0 0.1 0.0 0.0 0.1 0.3 0.3 0.1 0.5 0.2 0.2 0.2 0.0 0.3 0.1 0.0 0.3 0.2 0.3 0.8 2.7 1.2 1.3 0.9 0.9
6.1 0.5 0.7 3.4 0.7 0.0 1.5 2.0 1.7 0.9 1.3 0.0 0.0 0.1 0.4 0.0 0.0 0.0 0.0 0.0 0.0 0.0 0.0 0.0 0.0 0.0 0.1 0.0 0.0 0.0 0.0 0.0 0.0 0.1 0.0 0.0 0.0 0.1 0.1 0.1 0.9 2.5 2.4 1.8
7.9 1.7 9.3 0.5 0.0 0.0 1.7 0.9 0.0 0.2 0.0 0.0 0.0 0.3 0.4 0.1 0.0 0.0 0.0 0.0 0.0 0.0 0.0 0.0 0.0 0.0 0.0 0.0 0.0 0.0 0.0 0.0 0.0 0.0 0.1 0.6 1.4 2.5 2.4 2.0 1.5 1.0 2.5 3.2
9.9 5.1 1.0 0.4 0.2 0.5 1.0 1.0 0.6 0.7 0.1 0.0 0.0 0.7 1.6 0.0 0.0 0.0 0.0 0.0 0.0 0.0 0.0 0.0 0.0 0.0 0.0 0.0 0.0 0.0 0.0 1.3 1.1 1.0 0.9 3.1 3.9 3.9 3.6 2.9 3.8 3.5 4.2 4.6
10.0 11.6 5.5 1.6 0.7 0.0 0.0 6.1 2.3 1.2 0.3 0.2 0.0 1.1 1.1 0.1 0.0 0.0 0.0 0.0 0.0 0.0 0.0 0.0 0.0 0.0 0.0 0.0 0.6 0.2 2.8 3.2 1.0 4.3 4.4 5.2 4.9 4.4 4.7 4.4 4.9 4.6 5.2 4.1
11.6 15.5 4.1 1.5 0.0 0.0 2.8 8.2 1.7 1.3 3.0 4.1 3.8 3.4 1.0 0.1 0.0 0.0 0.0 0.0 0.0 0.0 0.0 0.0 0.0 0.0 0.0 0.4 0.3 2.7 3.1 5.7 5.8 7.5 7.1 6.2 6.6 5.9 5.2 5.8 5.1 5.3 4.5 3.4
12.2 14.1 10.0 1.3 0.4 4.6 3.1 1.6 2.3 2.8 3.6 7.4 2.4 0.4 0.0 0.0 0.0 0.0 0.0 0.0 0.0 0.0 0.0 0.0 0.0 0.0 0.2 0.2 2.8 3.9 5.9 6.3 5.9 5.3 6.4 5.8 5.1 6.1 5.3 4.2 4.6 4.1 3.6 4.2
8.9 7.0 3.9 2.4 2.7 3.3 3.2 3.1 3.4 3.8 2.3 0.4 0.4 0.0 0.0 0.0 0.0 0.0 0.0 0.0 0.0 0.0 0.0 0.0 0.0 0.0 0.1 0.7 2.1 3.6 4.5 3.2 5.0 4.4 3.9 3.6 4.4 5.5 5.1 4.3 4.5 4.8 4.5 4.1
7.7 4.7 2.0 3.6 2.0 2.2 3.1 3.2 1.6 0.0 0.0 0.0 0.0 0.0 0.0 0.0 0.0 0.0 0.0 0.0 0.0 0.0 0.0 0.0 0.0 0.0 0.6 1.3 4.0 5.1 5.3 6.5 5.8 5.3 5.8 5.5 5.4 5.1 4.5 4.9 4.7 4.6 5.9 6.6
12.2 11.7 1.7 3.1 3.4 3.6 2.8 1.4 1.5 0.0 0.0 0.0 0.0 0.0 0.0 0.0 0.0 0.0 0.0 0.0 0.0 0.3 0.2 0.0 0.0 0.6 0.7 1.8 2.7 3.4 3.2 3.6 5.4 4.7 4.4 3.7 3.2 3.7 3.4 4.9 4.9 6.6 6.7 7.7
10.7 7.1 9.1 6.4 8.5 4.7 2.5 0.6 0.0 0.0 0.0 0.0 0.0 0.0 0.0 0.1 0.0 0.0 0.0 0.0 0.0 0.0 0.1 0.2 0.1 0.6 1.2 1.3 0.6 0.8 3.0 3.9 7.4 4.9 12.4 8.3 8.2 10.5 9.9 8.3 7.9 10.8 12.6 13.3
2.7 2.9 4.6 5.1 0.0 0.0 0.9 1.6 1.2 0.0 0.3 0.2 0.0 0.0 0.1 0.1 0.1 0.8 0.7 0.6 1.1 0.7 0.7 1.0 1.1 0.8 1.0 0.9 1.1 1.1 1.8 3.0 5.9 7.1 11.3 14.8 16.6 12.4 14.6 16.0 15.6 16.3 12.9 11.4
0.0 1.3 0.7 0.0 1.2 0.0 0.0 0.0 0.6 0.0 0.0 0.0 0.3 0.1 0.2 0.3 1.6 3.2 3.8 4.1 3.5 1.6 2.5 2.2 0.9 2.3 6.5 5.6 7.0 6.8 6.8 9.5 10.0 12.7 17.2 19.5 18.9 19.9 20.1 16.7 13.2 17.5 17.7 17.8
0.3 0.0 0.1 0.0 0.2 0.0 0.0 0.0 0.4 0.1 0.0 0.0 0.0 0.1 0.4 1.2 3.2 3.8 11.0 12.1 7.8 10.8 14.0 12.8 12.1 17.4 17.8 16.4 15.7 16.0 13.8 15.1 15.2 17.2 17.5 17.7 19.3 19.2 18.0 17.3 17.0 16.6 16.9 15.3
0.5 0.0 0.0 0.5 0.3 0.3 0.3 0.5 0.9 0.3 0.0 0.1 0.2 0.4 0.6 2.2 3.5 4.5 7.1 10.2 11.2 15.5 18.3 18.0 19.2 20.1 17.2 15.3 12.9 12.7 12.6 11.4 9.4 9.6 11.8 13.4 13.5 13.8 14.9 14.8 15.0 15.3 14.9 15.7
2.8 1.1 0.2 0.5 0.4 0.4 0.6 1.0 1.6 0.9 0.6 0.4 0.3 0.8 0.7 0.9 3.3 6.4 10.9 10.7 12.5 14.1 14.8 13.3 14.0 11.4 9.3 8.8 7.5 7.0 7.5 7.3 6.6 6.6 6.9 7.5 9.4 10.3 11.1 11.3 11.6 12.0 12.8 13.2
0.4 0.4 0.7 2.8 3.3 2.0 0.8 0.8 1.3 0.8 0.9 0.8 1.0 1.5 2.3 4.4 7.3 12.0 15.2 14.4 10.2 9.5 10.6 10.1 8.1 6.4 5.7 5.7 4.7 4.3 4.3 4.2 4.9 5.9 5.4 5.7 7.1 7.5 7.3 7.1 7.4 7.5 8.8 9.5
1.1 2.7 2.2 2.6 2.6 2.1 1.9 1.7 1.4 0.9 2.1 2.6 4.1 6.9 7.9 10.2 9.5 9.1 8.1 7.9 8.6 7.3 8.4 5.7 4.7 4.2 3.5 3.8 3.1 3.6 3.4 3.8 3.8 3.9 4.0 3.8 4.7 5.2 6.7 6.1 5.9 6.4 6.9 7.2
2.0 1.4 2.0 1.1 0.5 1.3 1.2 1.4 2.0 3.2 5.2 4.4 5.1 6.5 6.1 6.7 5.8 5.9 5.2 5.7 4.7 4.3 2.9 3.4 3.3 3.4 3.3 3.1 2.2 2.3 2.4 2.3 3.0 3.5 4.0 4.4 5.3 5.3 5.2 4.2 5.3 5.7 5.8 6.2
1.4 0.8 0.8 1.0 1.2 1.8 2.8 4.1 3.6 5.3 7.7 5.9 4.9 6.1 6.8 8.7 8.0 7.4 5.7 3.2 3.8 2.7 2.6 2.5 2.0 2.5 2.1 2.5 2.3 2.2 2.9 3.3 3.5 4.4 4.1 4.1 4.0 4.0 3.8 4.2 4.7 4.3 5.3 5.6
6.0 6.3 5.3 5.0 4.5 5.8 6.3 6.1 5.1 5.6 6.0 6.6 7.2 7.0 7.3 8.4 7.6 6.1 4.4 3.7 3.1 2.5 2.3 2.0 1.6 1.8 1.6 1.7 2.4 2.9 2.9 3.0 2.6 2.6 2.7 3.0 3.3 3.4 3.2 3.4 4.0 4.0 4.2 4.2
10.1 9.8 9.4 8.4 7.2 8.0 8.7 7.8 7.8 6.7 7.3 7.7 7.3 7.1 6.1 6.5 5.2 3.5 3.5 2.5 2.0 2.0 1.9 1.8 1.6 1.4 1.4 2.3 3.1 3.0 3.1 2.4 2.3 2.4 2.5 2.5 2.8 3.2 3.0 2.9 3.3 3.5 3.7 3.3
7.8 7.8 9.4 8.2 7.1 5.8 6.7 8.0 6.9 7.0 6.8 7.5 6.2 5.7 4.5 4.3 3.7 2.8 2.1 2.0 2.1 2.0 1.8 2.0 1.5 1.2 1.6 2.5 2.6 2.2 2.6 2.2 2.0 2.2 2.0 1.2 2.3 1.9 2.2 2.3 2.2 2.1 2.3 2.3
6.3 5.6 5.0 5.1 4.8 5.6 5.1 5.3 4.8 5.7 5.6 6.6 5.9 4.7 3.5 2.5 3.1 3.2 2.3 2.6 2.1 1.9 2.0 1.8 1.0 1.2 1.8 2.3 2.3 2.0 2.4 2.1 1.9 2.4 2.3 2.1 1.9 1.9 1.9 1.8 1.7 1.8 1.6 1.6
6.2 6.1 5.7 4.7 4.9 4.5 3.9 3.9 4.6 5.6 4.9 5.6 5.2 4.1 3.5 3.2 3.1 3.1 2.4 2.0 1.3 1.5 2.2 2.6 1.7 1.5 2.0 2.0 2.0 1.8 2.0 1.9 1.6 1.8 1.8 1.8 1.9 1.8 1.7 1.7 1.5 1.3 1.4 1.3
5.4 5.0 3.6 3.9 4.0 4.0 4.0 4.3 4.1 4.6 4.5 4.5 4.7 3.6 3.4 3.7 3.3 3.3 2.4 2.7 2.4 2.3 2.6 2.7 2.1 1.6 1.5 1.9 2.3 2.0 1.8 1.6 0.7 1.4 1.5 1.8 1.9 2.0 1.9 1.9 1.9 1.8 1.7 1.8

GFSNGP_prec_snow_216.txt.gz
Snowfall_Accumulation
0.0 0.0 0.3 0.1 0.0 0.6 2.7 3.4 6.5 0.4 0.4 2.5 0.1 0.8 0.3 0.0 0.0 0.7 1.4 1.6 0.0 3.3 3.0 1.6 3.0 1.7 2.2 1.5 1.6 1.5 0.7 1.0 0.6 0.0 0.7 1.5 0.8 1.7 2.7 2.9 1.2 1.2 1.8 2.0
1.5 0.2 0.2 0.9 0.6 0.6 0.3 0.2 0.8 0.9 1.1 0.1 0.0 0.0 0.0 0.0 0.0 0.0 0.1 0.0 0.1 0.0 0.0 0.1 0.3 0.3 0.1 0.5 0.2 0.2 0.2 0.0 0.3 0.1 0.0 0.3 0.2 0.3 0.8 2.7 1.2 1.3 0.9 0.9
6.2 0.5 0.7 3.4 0.7 0.0 1.5 2.0 1.7 0.9 1.3 0.0 0.0 0.1 0.4 0.0 0.0 0.0 0.0 0.0 0.0 0.0 0.0 0.0 0.0 0.0 0.1 0.0 0.0 0.0 0.0 0.0 0.0 0.1 0.0 0.0 0.0 0.1 0.1 0.1 0.9 2.5 2.4 1.8
7.9 1.7 9.3 0.5 0.0 0.0 1.7 0.9 0.0 0.2 0.0 0.0 0.0 0.3 0.4 0.1 0.0 0.0 0.0 0.0 0.0 0.0 0.0 0.0 0.0 0.0 0.0 0.0 0.0 0.0 0.0 0.0 0.0 0.0 0.1 0.6 1.4 2.5 2.4 2.0 1.5 1.0 2.5 3.2
9.9 5.1 1.0 0.4 0.2 0.5 1.0 1.0 0.6 0.7 0.1 0.0 0.0 0.7 1.6 0.0 0.0 0.0 0.0 0.0 0.0 0.0 0.0 0.0 0.0 0.0 0.0 0.0 0.0 0.0 0.0 1.3 1.1 1.0 0.9 3.1 3.9 3.9 3.6 2.9 3.8 3.5 4.2 4.6
10.0 11.6 5.5 1.6 0.7 0.0 0.0 6.1 2.3 1.2 0.3 0.2 0.0 1.1 1.1 0.1 0.0 0.0 0.0 0.0 0.0 0.0 0.0 0.0 0.0 0.0 0.0 0.0 0.6 0.2 2.8 3.2 1.0 4.3 4.4 5.2 4.9 4.4 4.7 4.4 4.9 4.6 5.2 4.1
11.6 15.5 4.1 1.5 0.0 0.0 2.8 8.2 1.7 1.3 3.0 4.1 3.8 3.4 1.0 0.1 0.0 0.0 0.0 0.0 0.0 0.0 0.0 0.0 0.0 0.0 0.0 0.4 0.3 2.7 3.1 5.7 5.8 7.5 7.1 6.2 6.6 5.9 5.2 5.8 5.1 5.3 4.5 3.4
12.2 14.1 10.0 1.3 0.4 4.6 3.1 1.6 2.3 2.8 3.6 7.4 2.4 0.4 0.0 0.0 0.0 0.0 0.0 0.0 0.0 0.0 0.0 0.0 0.0 0.0 0.2 0.2 2.8 3.9 5.9 6.3 5.9 5.3 6.4 5.8 5.1 6.1 5.3 4.2 4.6 4.1 3.6 4.2
8.9 7.0 3.9 2.4 2.7 3.3 3.2 3.1 3.4 3.8 2.3 0.4 0.4 0.0 0.0 0.0 0.0 0.0 0.0 0.0 0.0 0.0 0.0 0.0 0.0 0.0 0.1 0.7 2.1 3.6 4.5 3.2 5.0 4.4 3.9 3.6 4.4 5.5 5.1 4.3 4.5 4.8 4.5 4.1
7.7 4.7 2.0 3.6 2.0 2.2 3.1 3.2 1.6 0.0 0.0 0.0 0.0 0.0 0.0 0.0 0.0 0.0 0.0 0.0 0.0 0.0 0.0 0.0 0.0 0.0 0.6 1.3 4.0 5.1 5.3 6.5 5.8 5.3 5.8 5.5 5.4 5.1 4.5 4.9 4.7 4.6 5.9 6.6
12.2 11.7 1.7 3.1 3.4 3.6 2.8 1.4 1.5 0.0 0.0 0.0 0.0 0.0 0.0 0.0 0.0 0.0 0.0 0.0 0.0 0.4 0.3 0.1 0.0 0.6 0.7 1.8 2.7 3.4 3.2 3.6 5.4 4.7 4.4 3.7 3.5 3.8 3.5 4.9 4.9 6.6 6.7 7.7
10.7 7.1 9.1 6.4 8.5 4.7 2.5 0.6 0.0 0.0 0.0 0.0 0.0 0.0 0.0 0.1 0.0 0.0 0.0 0.0 0.1 0.1 0.1 0.2 0.2 0.6 1.2 1.3 0.6 0.8 3.0 3.9 7.4 4.9 12.4 8.3 8.2 10.5 10.0 8.3 7.9 11.0 12.6 13.6
2.7 2.9 4.6 5.1 0.0 0.0 0.9 1.6 1.2 0.0 0.3 0.2 0.0 0.0 0.1 0.1 0.1 0.8 0.7 0.6 1.4 1.0 1.0 1.2 1.2 0.8 1.0 0.9 1.1 1.1 1.8 3.0 5.9 7.1 11.3 14.8 16.8 12.7 14.9 16.3 15.9 16.6 13.3 12.1
0.0 1.3 0.7 0.0 1.2 0.0 0.0 0.0 0.6 0.0 0.0 0.0 0.3 0.1 0.2 0.3 1.6 3.2 3.8 4.4 4.0 1.9 2.7 2.4 1.0 2.3 6.5 5.6 7.0 6.8 6.8 9.6 10.0 12.7 17.2 20.0 19.9 20.9 20.8 17.2 13.6 18.0 18.2 18.4
0.3 0.0 0.1 0.0 0.2 0.0 0.0 0.0 0.4 0.1 0.0 0.0 0.0 0.1 0.4 1.4 3.3 3.9 11.2 12.6 8.2 11.1 14.2 12.8 12.1 17.4 17.8 16.4 15.7 16.1 13.8 15.1 15.2 17.2 17.5 18.5 20.4 20.2 18.9 18.2 17.8 17.2 17.7 16.6
0.5 0.0 0.0 0.5 0.3 0.3 0.3 0.5 0.9 0.3 0.0 0.1 0.2 0.4 0.6 2.2 3.5 4.5 7.4 11.0 11.8 15.9 18.5 18.1 19.3 20.1 17.3 15.3 12.9 12.7 12.6 11.5 9.4 9.6 11.8 13.9 14.3 14.7 15.9 15.6 15.7 16.0 15.6 16.7
2.8 1.1 0.2 0.5 0.4 0.4 0.6 1.0 1.6 0.9 0.6 0.4 0.3 0.8 0.7 0.9 3.3 6.4 10.9 11.0 12.8 14.4 15.2 13.6 14.1 11.4 9.3 8.8 7.5 7.0 7.6 7.3 6.6 6.6 7.0 7.7 9.6 10.8 11.9 11.9 12.2 12.7 13.7 14.0
0.4 0.4 0.7 2.8 3.3 2.0 0.8 0.8 1.3 0.8 0.9 0.8 1.0 1.5 2.3 4.4 7.3 12.0 15.3 14.4 10.2 9.5 10.7 10.2 8.1 6.4 5.7 5.8 4.8 4.4 4.5 4.2 4.9 5.9 5.4 5.9 7.4 7.8 7.8 7.5 7.8 7.9 9.3 10.1
1.1 2.7 2.2 2.6 2.6 2.1 1.9 1.7 1.4 0.9 2.1 2.6 4.1 6.9 7.9 10.2 9.5 9.1 8.1 7.9 8.7 7.4 8.4 5.7 4.7 4.2 3.5 3.8 3.5 3.9 3.8 4.0 3.8 4.0 4.0 4.0 4.8 5.2 7.1 6.4 6.1 6.6 7.1 7.3
2.0 1.4 2.0 1.1 0.5 1.3 1.2 1.4 2.0 3.2 5.2 4.4 5.1 6.5 6.1 6.7 5.8 5.9 5.2 5.9 5.2 4.7 3.0 3.4 3.4 3.5 3.5 3.4 2.7 2.8 2.8 2.7 3.1 3.7 4.3 4.6 5.5 5.6 5.6 4.4 5.4 5.8 5.9 6.3
1.4 0.8 0.8 1.0 1.2 1.8 2.8 4.1 3.6 5.3 7.7 5.9 4.9 6.1 6.8 8.7 8.0 7.4 5.7 3.2 3.8 2.7 2.7 2.6 2.0 2.6 2.3 3.0 3.0 2.8 3.5 3.7 3.8 4.7 4.3 4.4 4.3 4.3 4.1 4.3 4.7 4.4 5.3 5.6
6.0 6.3 5.3 5.0 4.5 5.8 6.3 6.1 5.1 5.6 6.0 6.6 7.2 7.0 7.3 8.4 7.6 6.1 4.4 3.7 3.1 2.5 2.3 2.2 1.8 2.0 2.0 2.0 2.9 3.5 3.5 3.6 3.1 3.0 3.1 3.4 3.6 3.7 3.4 3.5 4.1 4.0 4.2 4.2
10.1 9.8 9.4 8.4 7.2 8.0 8.7 7.8 7.8 6.7 7.3 7.7 7.3 7.1 6.1 6.5 5.2 3.5 3.5 2.5 2.0 2.0 1.9 1.8 1.9 1.6 1.6 2.5 3.4 3.4 3.6 3.0 2.9 2.9 3.0 3.0 3.2 3.5 3.2 3.0 3.4 3.5 3.7 3.3
7.8 7.8 9.4 8.2 7.1 5.8 6.7 8.0 6.9 7.0 6.8 7.5 6.2 5.7 4.5 4.3 3.7 2.8 2.1 2.0 2.1 2.0 1.8 2.0 1.7 1.4 1.7 2.8 2.9 2.6 3.0 2.6 2.6 2.8 2.7 1.9 2.8 2.4 2.5 2.5 2.3 2.1 2.3 2.3
6.3 5.6 5.0 5.3 4.9 6.1 5.7 5.8 5.4 6.1 5.9 6.8 6.1 4.8 3.5 2.5 3.1 3.2 2.3 2.6 2.1 1.9 2.0 1.8 1.0 1.5 2.1 2.6 2.7 2.4 2.8 2.5 2.3 2.9 2.8 2.6 2.3 2.1 2.0 1.8 1.7 1.8 1.6 1.6
6.2 6.1 6.2 5.1 5.4 4.9 4.2 4.2 5.0 6.0 5.3 5.9 5.3 4.1 3.5 3.2 3.1 3.1 2.4 2.0 1.3 1.5 2.2 2.6 2.0 1.8 2.5 2.5 2.6 2.3 2.5 2.3 2.0 2.1 2.1 2.1 2.1 1.9 1.7 1.7 1.6 1.3 1.5 1.3
5.4 5.0 3.6 3.9 4.2 4.4 4.3 4.6 4.7 5.0 4.7 4.6 4.7 3.6 3.4 3.7 3.3 3.3 2.4 2.7 2.4 2.3 2.6 2.7 2.1 2.0 1.9 2.6 3.1 2.7 2.5 2.1 1.1 1.7 1.8 2.0 2.1 2.1 2.0 2.0 1.9 1.8 1.7 1.8

GFSNGP_prec_snow_219.txt.gz
Snowfall_Accumulation
0.0 0.0 0.3 0.1 0.0 0.6 2.7 3.4 6.5 0.4 0.4 2.5 0.1 0.8 0.3 0.0 0.0 0.7 1.4 1.6 0.0 3.3 3.0 1.6 3.0 1.7 2.2 1.5 1.6 1.5 0.7 1.0 0.6 0.0 0.7 1.5 0.8 1.7 2.7 2.9 1.2 1.2 1.8 2.0
1.5 0.2 0.2 0.9 0.6 0.6 0.3 0.2 0.8 0.9 1.1 0.1 0.0 0.0 0.0 0.0 0.0 0.0 0.1 0.0 0.1 0.0 0.0 0.1 0.3 0.3 0.1 0.5 0.2 0.2 0.2 0.0 0.3 0.1 0.0 0.3 0.2 0.3 0.8 2.7 1.2 1.3 0.9 0.9
6.3 0.5 0.7 3.4 0.7 0.0 1.5 2.0 1.7 0.9 1.3 0.0 0.0 0.1 0.4 0.0 0.0 0.0 0.0 0.0 0.0 0.0 0.0 0.0 0.0 0.0 0.1 0.0 0.0 0.0 0.0 0.0 0.0 0.1 0.0 0.0 0.0 0.1 0.1 0.1 0.9 2.5 2.4 1.8
8.1 1.7 9.3 0.5 0.0 0.0 1.7 0.9 0.0 0.2 0.0 0.0 0.0 0.3 0.4 0.1 0.0 0.0 0.0 0.0 0.0 0.0 0.0 0.0 0.0 0.0 0.0 0.0 0.0 0.0 0.0 0.0 0.0 0.0 0.1 0.6 1.4 2.5 2.4 2.0 1.5 1.0 2.5 3.2
10.0 5.1 1.0 0.4 0.2 0.5 1.0 1.0 0.6 0.7 0.1 0.0 0.0 0.7 1.6 0.0 0.0 0.0 0.0 0.0 0.0 0.0 0.0 0.0 0.0 0.0 0.0 0.0 0.0 0.0 0.0 1.3 1.1 1.0 0.9 3.1 3.9 3.9 3.6 2.9 3.8 3.5 4.2 4.6
10.1 11.6 5.5 1.6 0.7 0.0 0.0 6.1 2.3 1.2 0.3 0.2 0.0 1.1 1.1 0.1 0.0 0.0 0.0 0.0 0.0 0.0 0.0 0.0 0.0 0.0 0.0 0.0 0.6 0.2 2.8 3.2 1.0 4.3 4.4 5.2 4.9 4.4 4.7 4.4 4.9 4.6 5.2 4.1
11.7 15.5 4.1 1.5 0.0 0.0 2.8 8.2 1.7 1.3 3.0 4.1 3.8 3.4 1.0 0.1 0.0 0.0 0.0 0.0 0.0 0.0 0.0 0.0 0.0 0.0 0.0 0.4 0.3 2.7 3.1 5.7 5.8 7.5 7.1 6.2 6.6 5.9 5.2 5.8 5.1 5.3 4.5 3.4
12.2 14.1 10.0 1.3 0.4 4.6 3.1 1.6 2.3 2.8 3.6 7.4 2.4 0.4 0.0 0.0 0.0 0.0 0.0 0.0 0.0 0.0 0.0 0.0 0.0 0.0 0.2 0.2 2.8 3.9 5.9 6.3 5.9 5.3 6.4 5.8 5.1 6.1 5.3 4.2 4.6 4.1 3.6 4.2
8.9 7.0 3.9 2.4 2.7 3.3 3.2 3.1 3.4 3.8 2.3 0.4 0.4 0.0 0.0 0.0 0.0 0.0 0.0 0.0 0.0 0.0 0.0 0.0 0.0 0.0 0.1 0.7 2.1 3.6 4.5 3.2 5.0 4.4 3.9 3.6 4.4 5.5 5.1 4.3 4.5 4.8 4.5 4.1
7.7 4.7 2.0 3.6 2.0 2.2 3.1 3.2 1.6 0.0 0.0 0.0 0.0 0.0 0.0 0.0 0.0 0.0 0.0 0.0 0.0 0.0 0.0 0.0 0.0 0.0 0.6 1.3 4.0 5.1 5.3 6.5 5.8 5.3 5.8 5.5 5.4 5.1 4.5 4.9 4.7 4.6 5.9 6.6
12.2 11.7 1.7 3.1 3.4 3.6 2.8 1.4 1.5 0.0 0.0 0.0 0.0 0.0 0.0 0.0 0.0 0.0 0.0 0.0 0.0 0.4 0.3 0.1 0.0 0.6 0.7 1.8 2.7 3.4 3.2 3.6 5.4 4.7 4.4 3.7 3.5 3.8 3.5 4.9 4.9 6.6 6.7 7.7
10.7 7.1 9.1 6.4 8.5 4.7 2.5 0.6 0.0 0.0 0.0 0.0 0.0 0.0 0.0 0.1 0.0 0.0 0.0 0.0 0.1 0.1 0.1 0.2 0.2 0.6 1.2 1.3 0.6 0.8 3.0 3.9 7.4 4.9 12.4 8.3 8.2 10.5 10.0 8.3 7.9 11.0 12.6 13.6
2.7 2.9 4.6 5.1 0.0 0.0 0.9 1.6 1.2 0.0 0.3 0.2 0.0 0.0 0.1 0.1 0.1 0.8 0.7 0.6 1.4 1.0 1.0 1.2 1.2 0.8 1.0 0.9 1.1 1.1 1.8 3.0 5.9 7.1 11.3 14.8 16.8 12.7 14.9 16.3 15.9 16.6 13.3 12.1
0.0 1.3 0.7 0.0 1.2 0.0 0.0 0.0 0.6 0.0 0.0 0.0 0.3 0.1 0.2 0.3 1.6 3.2 3.8 4.4 4.0 1.9 2.8 2.4 1.0 2.3 6.5 5.6 7.0 6.8 6.8 9.7 10.0 12.7 17.2 20.0 19.9 20.9 21.0 17.5 13.8 18.1 18.2 18.4
0.3 0.0 0.1 0.0 0.2 0.0 0.0 0.0 0.4 0.1 0.0 0.0 0.0 0.1 0.4 1.4 3.3 3.9 11.2 12.6 8.2 11.1 14.2 12.8 12.1 17.4 17.8 16.4 15.7 16.1 13.8 15.1 15.2 17.2 17.5 18.5 20.4 20.2 19.1 18.4 18.0 17.5 17.9 16.8
0.5 0.0 0.0 0.5 0.3 0.3 0.3 0.5 0.9 0.3 0.0 0.1 0.2 0.4 0.6 2.2 3.5 4.5 7.4 11.0 11.8 15.9 18.5 18.1 19.3 20.1 17.3 15.3 12.9 12.8 12.6 11.5 9.5 9.7 11.9 14.0 14.3 14.8 16.1 15.8 16.0 16.3 15.9 17.0
2.8 1.1 0.2 0.6 0.4 0.4 0.6 1.0 1.6 0.9 0.6 0.4 0.3 0.8 0.7 0.9 3.3 6.4 10.9 11.0 12.8 14.4 15.2 13.6 14.1 11.4 9.3 8.8 7.5 7.0 7.6 7.4 6.6 6.6 7.1 7.7 9.6 10.9 12.0 12.1 12.4 12.9 13.9 14.2
0.4 0.4 0.7 2.8 3.3 2.0 0.8 0.8 1.3 0.8 0.9 0.8 1.0 1.5 2.3 4.4 7.3 12.0 15.3 14.4 10.2 9.5 10.7 10.2 8.1 6.4 5.7 5.8 4.8 4.4 4.6 4.3 5.0 6.0 5.5 5.9 7.4 7.9 7.9 7.6 7.9 8.0 9.4 10.3
1.1 2.7 2.2 2.6 2.6 2.1 1.9 1.7 1.4 0.9 2.1 2.6 4.1 6.9 7.9 10.2 9.5 9.1 8.1 7.9 8.7 7.4 8.4 5.7 4.7 4.2 3.5 3.8 3.5 4.0 3.8 4.2 4.0 4.2 4.2 4.1 4.9 5.3 7.2 6.5 6.2 6.6 7.1 7.4
2.0 1.4 2.0 1.1 0.5 1.3 1.2 1.4 2.0 3.2 5.2 4.4 5.1 6.5 6.1 6.7 5.8 5.9 5.2 5.9 5.2 4.7 3.0 3.4 3.4 3.5 3.5 3.4 2.7 2.8 2.8 2.8 3.3 3.8 4.4 4.8 5.7 5.7 5.7 4.5 5.5 5.8 6.0 6.4
1.4 0.8 0.8 1.0 1.2 1.8 2.8 4.1 3.6 5.3 7.7 5.9 4.9 6.1 6.8 8.7 8.0 7.4 5.7 3.2 3.8 2.7 2.7 2.6 2.0 2.6 2.3 3.0 3.0 2.9 3.6 3.9 4.0 4.9 4.5 4.6 4.6 4.5 4.2 4.4 4.8 4.4 5.4 5.6
6.0 6.3 5.3 5.0 4.5 5.8 6.3 6.1 5.1 5.6 6.0 6.6 7.2 7.0 7.3 8.4 7.6 6.1 4.4 3.7 3.1 2.5 2.3 2.2 1.8 2.0 2.0 2.0 2.9 3.5 3.6 3.8 3.2 3.2 3.3 3.6 3.9 4.0 3.6 3.7 4.2 4.0 4.2 4.2
10.1 9.8 9.4 8.4 7.2 8.0 8.7 7.8 7.8 6.7 7.3 7.7 7.3 7.1 6.1 6.6 5.2 3.5 3.5 2.5 2.0 2.0 1.9 1.8 1.9 1.6 1.6 2.5 3.4 3.5 3.7 3.1 3.1 3.1 3.2 3.2 3.5 3.8 3.5 3.3 3.5 3.6 3.8 3.3
7.8 7.8 9.4 8.2 7.1 5.8 6.7 8.0 7.0 7.0 6.8 7.5 6.5 6.2 4.9 4.7 3.9 2.8 2.1 2.0 2.1 2.0 1.8 2.0 1.7 1.4 1.7 2.8 3.0 2.7 3.1 2.8 2.8 3.0 2.9 2.1 3.1 2.7 2.8 2.8 2.5 2.2 2.4 2.3
6.3 5.6 5.0 5.3 4.9 6.1 5.7 5.8 5.4 6.1 6.3 7.3 6.6 5.4 3.9 2.7 3.3 3.2 2.3 2.6 2.1 1.9 2.0 1.8 1.0 1.5 2.1 2.7 2.8 2.5 2.9 2.7 2.6 3.2 3.1 2.8 2.6 2.4 2.3 2.0 1.8 2.0 1.7 1.6
6.2 6.1 6.2 5.1 5.4 4.9 4.2 4.2 5.1 6.2 5.3 6.3 5.7 4.4 3.7 3.3 3.1 3.1 2.4 2.0 1.3 1.5 2.2 2.6 2.0 1.8 2.5 2.5 2.6 2.4 2.6 2.3 2.2 2.4 2.5 2.4 2.4 2.2 2.0 2.0 1.8 1.5 1.6 1.4
5.4 5.0 3.6 3.9 4.2 4.4 4.3 4.6 4.7 5.1 4.7 4.7 4.8 3.6 3.4 3.7 3.3 3.3 2.4 2.7 2.4 2.3 2.6 2.7 2.2 2.0 1.9 2.6 3.1 2.8 2.6 2.3 1.4 2.0 2.2 2.4 2.5 2.4 2.3 2.3 2.2 2.1 1.8 1.9

GFSNGP_prec_snow_222.txt.gz
Snowfall_Accumulation
0.0 0.0 0.3 0.1 0.0 0.6 2.7 3.4 6.5 0.4 0.4 2.5 0.1 0.8 0.3 0.0 0.0 0.7 1.4 1.6 0.0 3.3 3.0 1.6 3.0 1.7 2.2 1.5 1.6 1.5 0.7 1.0 0.6 0.0 0.7 1.5 0.8 1.7 2.7 2.9 1.2 1.2 1.8 2.0
1.5 0.2 0.2 0.9 0.6 0.6 0.3 0.2 0.8 0.9 1.1 0.1 0.0 0.0 0.0 0.0 0.0 0.0 0.1 0.0 0.1 0.0 0.0 0.1 0.3 0.3 0.1 0.5 0.2 0.2 0.2 0.0 0.3 0.1 0.0 0.3 0.2 0.3 0.8 2.7 1.2 1.3 0.9 0.9
6.7 0.5 0.7 3.4 0.7 0.0 1.5 2.0 1.7 0.9 1.3 0.0 0.0 0.1 0.4 0.0 0.0 0.0 0.0 0.0 0.0 0.0 0.0 0.0 0.0 0.0 0.1 0.0 0.0 0.0 0.0 0.0 0.0 0.1 0.0 0.0 0.0 0.1 0.1 0.1 0.9 2.5 2.4 1.8
8.9 2.2 9.7 0.5 0.0 0.0 1.7 0.9 0.0 0.2 0.0 0.0 0.0 0.3 0.4 0.1 0.0 0.0 0.0 0.0 0.0 0.0 0.0 0.0 0.0 0.0 0.0 0.0 0.0 0.0 0.0 0.0 0.0 0.0 0.1 0.6 1.4 2.5 2.4 2.0 1.5 1.0 2.5 3.2
10.4 5.4 1.0 0.4 0.2 0.5 1.0 1.0 0.6 0.7 0.1 0.0 0.0 0.7 1.6 0.0 0.0 0.0 0.0 0.0 0.0 0.0 0.0 0.0 0.0 0.0 0.0 0.0 0.0 0.0 0.0 1.3 1.1 1.0 0.9 3.1 3.9 3.9 3.6 2.9 3.8 3.5 4.2 4.6
10.6 12.1 5.5 1.6 0.7 0.0 0.0 6.1 2.3 1.2 0.3 0.2 0.0 1.1 1.1 0.1 0.0 0.0 0.0 0.0 0.0 0.0 0.0 0.0 0.0 0.0 0.0 0.0 0.6 0.2 2.8 3.2 1.0 4.3 4.4 5.2 4.9 4.4 4.7 4.4 4.9 4.6 5.2 4.1
11.9 15.5 4.1 1.5 0.0 0.0 2.8 8.2 1.7 1.3 3.0 4.1 3.8 3.4 1.0 0.1 0.0 0.0 0.0 0.0 0.0 0.0 0.0 0.0 0.0 0.0 0.0 0.4 0.3 2.7 3.1 5.7 5.8 7.5 7.1 6.2 6.6 5.9 5.2 5.8 5.1 5.3 4.5 3.4
12.5 14.3 10.1 1.3 0.4 4.6 3.1 1.6 2.3 2.8 3.6 7.4 2.4 0.4 0.0 0.0 0.0 0.0 0.0 0.0 0.0 0.0 0.0 0.0 0.0 0.0 0.2 0.2 2.8 3.9 5.9 6.3 5.9 5.3 6.4 5.8 5.1 6.1 5.3 4.2 4.6 4.1 3.6 4.2
8.9 7.0 3.9 2.4 2.7 3.3 3.2 3.1 3.4 3.8 2.3 0.4 0.4 0.0 0.0 0.0 0.0 0.0 0.0 0.0 0.0 0.0 0.0 0.0 0.0 0.0 0.1 0.7 2.1 3.6 4.5 3.2 5.0 4.4 3.9 3.6 4.4 5.5 5.1 4.3 4.5 4.8 4.5 4.1
7.7 4.7 2.0 3.6 2.0 2.2 3.1 3.2 1.6 0.0 0.0 0.0 0.0 0.0 0.0 0.0 0.0 0.0 0.0 0.0 0.0 0.0 0.0 0.0 0.0 0.0 0.6 1.3 4.0 5.1 5.3 6.5 5.8 5.3 5.8 5.5 5.4 5.1 4.5 4.9 4.7 4.6 5.9 6.6
12.2 11.7 1.7 3.1 3.4 3.6 2.8 1.4 1.5 0.0 0.0 0.0 0.0 0.0 0.0 0.0 0.0 0.0 0.0 0.0 0.0 0.4 0.3 0.1 0.0 0.6 0.7 1.8 2.7 3.4 3.2 3.6 5.4 4.7 4.4 3.7 3.5 3.8 3.5 4.9 4.9 6.6 6.7 7.8
10.7 7.1 9.1 6.4 8.5 4.7 2.5 0.6 0.0 0.0 0.0 0.0 0.0 0.0 0.0 0.1 0.0 0.0 0.0 0.0 0.1 0.1 0.1 0.2 0.2 0.6 1.2 1.3 0.6 0.8 3.0 3.9 7.4 4.9 12.4 8.3 8.2 10.5 10.0 8.3 7.9 11.0 12.6 13.8
2.7 2.9 4.6 5.1 0.0 0.0 0.9 1.6 1.2 0.0 0.3 0.2 0.0 0.0 0.1 0.1 0.1 0.8 0.7 0.6 1.4 1.0 1.0 1.2 1.2 0.8 1.0 0.9 1.1 1.1 1.8 3.0 5.9 7.1 11.3 14.8 16.8 12.7 14.9 16.3 15.9 16.6 13.3 12.2
0.0 1.3 0.7 0.0 1.2 0.0 0.0 0.0 0.6 0.0 0.0 0.0 0.3 0.1 0.2 0.3 1.6 3.2 3.8 4.4 4.0 1.9 2.8 2.4 1.0 2.3 6.5 5.6 7.0 6.8 6.8 9.9 10.0 12.7 17.2 20.0 19.9 20.9 21.0 17.5 13.9 18.1 18.2 18.4
0.3 0.0 0.1 0.0 0.2 0.0 0.0 0.0 0.4 0.1 0.0 0.0 0.0 0.1 0.4 1.4 3.3 3.9 11.2 12.6 8.2 11.1 14.2 12.8 12.1 17.4 17.8 16.4 15.7 16.1 13.8 15.1 15.2 17.2 17.5 18.5 20.4 20.2 19.1 18.4 18.0 17.5 17.9 16.8
0.5 0.0 0.0 0.5 0.3 0.3 0.3 0.5 0.9 0.3 0.0 0.1 0.2 0.4 0.6 2.2 3.5 4.5 7.4 11.0 11.8 15.9 18.5 18.1 19.3 20.1 17.3 15.3 12.9 12.8 12.6 11.5 9.5 9.7 11.9 14.0 14.3 14.8 16.1 15.8 16.0 16.3 16.0 17.0
2.8 1.1 0.2 0.6 0.4 0.4 0.6 1.0 1.6 0.9 0.6 0.4 0.3 0.8 0.7 0.9 3.3 6.4 10.9 11.0 12.8 14.4 15.2 13.6 14.1 11.4 9.3 8.8 7.5 7.0 7.6 7.4 6.6 6.6 7.1 7.7 9.6 11.0 12.0 12.1 12.5 13.0 13.9 14.2
0.4 0.4 0.7 2.8 3.3 2.0 0.8 0.8 1.3 0.8 0.9 0.8 1.0 1.5 2.3 4.4 7.3 12.0 15.3 14.4 10.2 9.5 10.7 10.2 8.1 6.4 5.7 5.8 4.8 4.4 4.6 4.3 5.0 6.0 5.6 6.0 7.4 8.0 7.9 7.7 8.0 8.1 9.4 10.3
1.1 2.7 2.2 2.6 2.6 2.1 1.9 1.7 1.4 0.9 2.1 2.6 4.1 6.9 7.9 10.2 9.5 9.1 8.1 7.9 8.7 7.4 8.4 5.7 4.7 4.2 3.5 3.8 3.5 4.0 3.8 4.2 4.0 4.2 4.2 4.2 5.0 5.3 7.3 6.7 6.3 6.7 7.2 7.4
2.0 1.4 2.0 1.1 0.5 1.3 1.2 1.4 2.0 3.2 5.2 4.4 5.1 6.5 6.1 6.7 5.8 5.9 5.2 5.9 5.2 4.7 3.0 3.4 3.4 3.5 3.5 3.4 2.7 2.8 2.8 2.8 3.3 3.9 4.5 4.8 5.8 5.9 5.7 4.6 5.6 6.0 6.0 6.4
1.4 0.8 0.8 1.0 1.2 1.8 2.8 4.1 3.6 5.3 7.7 5.9 4.9 6.1 6.8 8.7 8.0 7.4 5.7 3.2 3.8 2.7 2.7 2.6 2.0 2.6 2.3 3.0 3.0 2.9 3.6 3.9 4.0 4.9 4.5 4.7 4.7 4.7 4.4 4.6 4.9 4.5 5.5 5.7
6.0 6.3 5.3 5.0 4.5 5.8 6.3 6.1 5.1 5.6 6.0 6.6 7.2 7.0 7.3 8.4 7.6 6.1 4.4 3.7 3.1 2.5 2.3 2.2 1.8 2.0 2.0 2.0 2.9 3.5 3.6 3.8 3.2 3.2 3.3 3.7 4.1 4.2 3.9 3.9 4.4 4.2 4.4 4.4
10.1 9.8 9.4 8.4 7.2 8.0 8.7 7.8 7.8 6.7 7.3 7.7 7.3 7.1 6.1 6.6 5.2 3.8 3.8 2.5 2.1 2.1 1.9 1.8 1.9 1.6 1.6 2.5 3.4 3.5 3.7 3.1 3.1 3.1 3.2 3.3 3.7 4.1 3.8 3.5 3.8 3.8 4.0 3.5
7.8 7.8 9.4 8.2 7.1 5.8 6.7 8.0 7.0 7.0 6.8 7.5 6.5 6.2 4.9 5.0 4.2 3.1 2.4 2.2 2.1 2.0 1.8 2.0 1.7 1.4 1.7 2.8 3.0 2.7 3.1 2.8 2.8 3.0 2.9 2.3 3.3 2.9 3.0 3.0 2.8 2.5 2.7 2.6
6.3 5.6 5.0 5.3 4.9 6.2 5.7 5.8 5.4 6.1 6.3 7.3 6.6 5.7 4.1 2.9 3.6 3.4 2.3 2.6 2.1 1.9 2.0 1.8 1.0 1.5 2.1 2.7 2.8 2.5 2.9 2.7 2.6 3.2 3.1 2.8 2.8 2.6 2.5 2.3 2.2 2.3 2.1 1.9
6.2 6.1 6.2 5.1 5.4 4.9 4.2 4.2 5.1 6.2 5.4 6.3 5.7 4.6 4.0 3.4 3.2 3.1 2.4 2.0 1.3 1.5 2.2 2.6 2.0 1.8 2.5 2.5 2.6 2.4 2.6 2.3 2.2 2.4 2.5 2.6 2.6 2.5 2.3 2.3 2.2 1.9 2.0 1.8
5.4 5.0 3.6 3.9 4.2 4.4 4.3 4.6 4.7 5.1 4.7 4.8 4.9 3.7 3.4 3.7 3.3 3.3 2.4 2.8 2.4 2.3 2.6 2.7 2.2 2.0 1.9 2.6 3.1 2.8 2.7 2.3 1.4 2.0 2.2 2.4 2.7 2.7 2.6 2.6 2.6 2.5 2.3 2.4